TimeCET,TemperatureF,Dew PointF,Humidity,Sea Level PressureIn,VisibilityMPH,Wind Direction,Wind SpeedMPH,Gust SpeedMPH,PrecipitationIn,Events,Conditions,WindDirDegrees,DateUTC
12:00 AM,24.8,24.8,100,30.54,0.1,South,2.3,-,N/A,Fog,Light Freezing Fog,180,2013-12-14 23:00:00
12:30 AM,26.6,24.8,93,30.54,0.1,Calm,Calm,-,N/A,Fog,Light Freezing Fog,0,2013-12-14 23:30:00
1:00 AM,28.4,28.4,100,30.54,0.2,South,1.2,-,N/A,Fog,Light Freezing Fog,170,2013-12-15 00:00:00
1:30 AM,28.4,28.4,100,30.54,0.1,Variable,3.5,-,N/A,Fog,Light Freezing Fog,0,2013-12-15 00:30:00
2:00 AM,30.2,30.2,100,30.54,0.1,Variable,3.5,-,N/A,Fog,Light Freezing Fog,0,2013-12-15 01:00:00
2:30 AM,30.2,30.2,100,30.54,0.1,Variable,2.3,-,N/A,Fog,Light Freezing Fog,0,2013-12-15 01:30:00
3:00 AM,30.2,28.4,93,30.54,0.1,Variable,2.3,-,N/A,Fog,Light Freezing Fog,0,2013-12-15 02:00:00
3:30 AM,28.4,26.6,93,30.54,0.1,SSE,4.6,-,N/A,Fog,Light Freezing Fog,160,2013-12-15 02:30:00
4:00 AM,26.6,26.6,100,30.54,0.2,Variable,2.3,-,N/A,Fog,Light Freezing Fog,0,2013-12-15 03:00:00
4:30 AM,28.4,28.4,100,30.54,1.3,Calm,Calm,-,N/A,,Overcast,0,2013-12-15 03:30:00
5:00 AM,26.6,26.6,100,30.54,2.2,Calm,Calm,-,N/A,,Mist,0,2013-12-15 04:00:00
5:30 AM,26.6,24.8,93,30.54,1.9,SSE,4.6,-,N/A,,Mist,160,2013-12-15 04:30:00
6:00 AM,24.8,23.0,93,30.54,3.7,SSW,3.5,-,N/A,,Partly Cloudy,210,2013-12-15 05:00:00
6:30 AM,26.6,26.6,100,30.54,3.1,Calm,Calm,-,N/A,,Partly Cloudy,0,2013-12-15 05:30:00
7:00 AM,24.8,23.0,93,30.54,3.1,SSW,1.2,-,N/A,,Unknown,210,2013-12-15 06:00:00
7:30 AM,24.8,24.8,100,30.54,3.1,SSE,2.3,-,N/A,,Unknown,150,2013-12-15 06:30:00
8:00 AM,24.8,24.8,100,30.54,3.1,Calm,Calm,-,N/A,Fog,Shallow Fog,0,2013-12-15 07:00:00
8:30 AM,23.0,21.2,93,30.54,3.1,SSW,2.3,-,N/A,,Partly Cloudy,200,2013-12-15 07:30:00
9:00 AM,24.8,23.0,93,30.57,3.1,SE,2.3,-,N/A,,Partly Cloudy,130,2013-12-15 08:00:00
9:30 AM,28.4,26.6,93,30.57,3.1,Calm,Calm,-,N/A,,Partly Cloudy,0,2013-12-15 08:30:00
10:00 AM,32.0,30.2,93,30.57,3.1,Calm,Calm,-,N/A,,Unknown,0,2013-12-15 09:00:00
10:30 AM,32.0,32.0,100,30.57,3.1,Variable,2.3,-,N/A,,Unknown,0,2013-12-15 09:30:00
11:00 AM,35.6,33.8,93,30.57,3.7,Calm,Calm,-,N/A,,Unknown,0,2013-12-15 10:00:00
11:30 AM,37.4,35.6,93,30.57,5.0,Calm,Calm,-,N/A,,Unknown,0,2013-12-15 10:30:00
12:00 PM,39.2,35.6,87,30.54,5.0,Calm,Calm,-,N/A,,Unknown,0,2013-12-15 11:00:00
12:30 PM,41.0,35.6,81,30.54,5.6,Calm,Calm,-,N/A,,Unknown,0,2013-12-15 11:30:00
1:00 PM,44.6,35.6,71,30.54,5.6,Calm,Calm,-,N/A,,Unknown,0,2013-12-15 12:00:00
1:30 PM,46.4,33.8,62,30.51,5.6,Calm,Calm,-,N/A,,Unknown,0,2013-12-15 12:30:00
2:00 PM,46.4,32.0,57,30.51,5.6,Variable,2.3,-,N/A,,Unknown,0,2013-12-15 13:00:00
2:30 PM,46.4,32.0,57,30.51,5.6,Variable,3.5,-,N/A,,Unknown,0,2013-12-15 13:30:00
3:00 PM,48.2,32.0,54,30.51,5.6,Calm,Calm,-,N/A,,Unknown,0,2013-12-15 14:00:00
3:30 PM,46.4,35.6,66,30.51,5.6,North,3.5,-,N/A,,Unknown,360,2013-12-15 14:30:00
4:00 PM,44.6,33.8,66,30.48,-9999.0,WNW,2.3,-,N/A,,Clear,290,2013-12-15 15:00:00
4:30 PM,39.2,33.8,81,30.51,-9999.0,WNW,1.2,-,N/A,,Clear,300,2013-12-15 15:30:00
5:00 PM,35.6,30.2,81,30.51,-9999.0,Calm,Calm,-,N/A,,Clear,0,2013-12-15 16:00:00
5:30 PM,32.0,26.6,80,30.51,-9999.0,South,3.5,-,N/A,,Clear,180,2013-12-15 16:30:00
6:00 PM,32.0,28.4,87,30.51,-9999.0,South,3.5,-,N/A,,Clear,170,2013-12-15 17:00:00
6:30 PM,30.2,28.4,93,30.54,3.7,SSE,3.5,-,N/A,,Unknown,160,2013-12-15 17:30:00
7:00 PM,30.2,28.4,93,30.54,4.3,SSE,2.3,-,N/A,,Unknown,150,2013-12-15 18:00:00
7:30 PM,30.2,28.4,93,30.54,3.7,South,1.2,-,N/A,,Unknown,180,2013-12-15 18:30:00
8:00 PM,30.2,28.4,93,30.57,5.0,Calm,Calm,-,N/A,,Unknown,0,2013-12-15 19:00:00
8:30 PM,28.4,26.6,93,30.57,0.7,SSW,1.2,-,N/A,,Mist,200,2013-12-15 19:30:00
9:00 PM,26.6,24.8,93,30.57,3.7,SSE,3.5,-,N/A,,Unknown,160,2013-12-15 20:00:00
9:30 PM,26.6,26.6,100,30.57,3.1,SSE,3.5,-,N/A,,Mist,160,2013-12-15 20:30:00
10:00 PM,28.4,26.6,93,30.57,3.1,SSE,3.5,-,N/A,,Mist,160,2013-12-15 21:00:00
10:30 PM,26.6,24.8,93,30.57,-9999.0,SE,2.3,-,N/A,,Mist,140,2013-12-15 21:30:00
11:00 PM,28.4,26.6,93,30.57,3.1,Calm,Calm,-,N/A,,Mist,0,2013-12-15 22:00:00
11:30 PM,24.8,23.0,93,30.57,-9999.0,SSE,2.3,-,N/A,,Mist,160,2013-12-15 22:30:00